Wind_Speed
8 8 7 7 8 9 8 8 8 8 8 8 9 8 8 8 8 8 8 9 9 9 8 8 8 8 8 8 8 8 8 8 8 8 7 7 7 7 6 5 5 5 5 4
9 9 8 8 8 8 8 9 8 8 8 9 8 8 9 9 8 8 8 8 8 9 9 8 8 9 9 8 8 9 9 9 8 8 7 8 7 7 7 6 6 5 5 4
9 9 9 9 9 10 9 9 9 9 9 9 9 10 9 9 9 9 9 8 8 9 9 9 9 9 9 9 9 9 9 9 8 8 8 8 8 8 7 6 6 6 6 6
10 10 10 10 10 11 10 10 10 10 10 10 10 10 9 9 9 9 8 8 8 8 8 9 9 9 9 8 8 9 9 9 8 8 8 9 9 8 8 7 7 7 7 7
10 10 11 11 10 11 11 11 11 11 12 12 11 11 10 9 9 8 8 8 8 8 9 9 9 9 9 9 9 9 9 9 9 9 9 10 10 10 9 8 8 8 8 8
11 11 11 12 11 11 12 12 12 12 13 13 12 12 10 8 8 9 9 8 8 8 8 8 9 9 9 10 10 10 10 11 10 10 10 11 11 10 10 9 9 9 9 9
11 12 12 12 12 12 12 13 13 13 14 13 12 13 10 9 9 9 9 9 8 9 8 9 9 9 10 10 11 11 11 11 11 11 11 11 12 11 10 10 10 10 9 9
12 11 11 12 12 12 12 13 14 14 13 13 13 13 11 10 9 9 9 9 9 9 9 9 9 9 10 10 11 11 12 12 12 11 11 11 11 11 11 11 11 10 10 10
12 12 12 13 13 14 14 14 15 15 15 15 15 14 12 11 10 9 9 10 10 9 10 10 10 10 11 11 11 11 11 12 12 12 12 12 11 11 12 11 11 11 10 10
14 14 13 13 14 15 15 15 16 17 16 16 15 14 13 11 11 10 10 9 9 9 10 11 11 11 11 11 11 12 12 12 12 13 12 13 12 12 12 12 12 12 12 11
15 16 14 14 14 15 15 16 18 18 19 18 18 16 14 12 12 11 10 10 10 9 10 12 12 12 11 12 12 13 12 12 12 13 13 13 14 14 14 13 13 13 12 12
16 17 16 15 15 16 17 18 18 19 19 20 19 16 15 14 13 13 12 11 11 10 11 12 12 12 12 13 13 13 13 13 13 14 14 14 14 14 14 14 14 13 13 12
18 18 18 18 17 16 17 18 19 19 20 20 19 16 15 15 14 13 13 12 12 11 12 12 12 12 13 14 14 15 15 15 15 15 15 15 14 14 14 15 15 14 14 13
19 20 19 19 19 17 17 18 19 20 21 20 19 18 17 16 15 15 14 14 14 13 13 13 13 14 14 14 14 15 16 15 16 15 15 15 15 15 15 14 15 14 14 14
21 21 21 20 20 20 19 19 19 20 21 21 19 19 17 17 16 16 16 15 14 14 14 13 13 14 14 14 15 15 16 16 16 16 15 15 15 15 15 15 15 15 15 15
21 22 21 21 22 22 21 20 20 21 21 21 20 20 18 18 17 17 16 16 15 14 14 14 14 14 15 15 15 15 16 16 16 16 16 16 16 16 16 16 16 16 16 16
23 23 22 22 22 23 22 20 20 21 20 20 20 19 19 19 19 18 18 18 17 16 16 16 16 15 15 15 15 16 16 17 17 17 17 17 17 17 17 17 17 17 17 17
22 23 23 23 23 24 20 19 20 20 21 21 20 19 19 19 19 19 19 19 18 17 17 18 18 17 16 16 16 16 17 17 17 17 17 17 17 17 17 18 18 18 18 18
22 23 23 23 24 23 21 20 20 21 21 21 20 19 20 19 20 20 19 19 19 18 18 19 18 18 17 17 17 17 17 17 17 16 16 17 17 18 18 19 19 20 19 18
22 23 23 23 24 24 21 21 20 21 21 20 20 19 20 19 20 19 19 19 19 19 19 20 19 19 19 18 18 18 18 18 17 17 17 18 18 19 19 19 19 19 19 19
23 23 24 24 24 23 23 22 21 21 20 21 21 21 21 21 20 20 20 20 20 20 20 20 21 20 20 20 19 19 19 19 19 19 19 19 18 18 18 19 19 20 20 19
24 24 24 24 25 23 23 24 23 22 21 21 21 22 21 21 21 21 20 20 21 21 21 21 21 20 21 22 21 20 20 20 20 20 19 19 19 19 19 18 19 19 20 20
25 25 24 24 24 24 24 25 25 23 23 23 22 22 22 22 21 21 21 22 22 22 21 21 21 20 21 21 21 21 21 21 21 21 21 20 20 19 19 19 19 19 19 20
27 26 26 26 26 26 26 26 26 25 25 24 24 24 23 23 22 23 23 22 22 22 22 21 21 20 21 22 22 22 22 21 21 21 21 21 21 20 20 20 20 19 19 20
27 27 27 27 27 28 28 28 27 26 25 25 25 25 25 24 24 23 23 22 21 21 22 22 22 21 21 21 22 22 22 22 21 21 21 22 21 21 21 21 21 21 21 20
26 27 28 27 27 28 28 28 27 27 26 26 26 26 25 26 25 23 23 23 22 22 22 22 21 22 22 21 21 22 22 22 22 21 21 22 22 22 22 22 22 22 22 21
Wind_Direction
243 242 246 239 232 230 233 236 238 238 240 240 238 238 242 248 253 255 256 257 257 259 259 261 259 257 254 253 254 256 256 255 256 255 257 264 269 275 274 274 276 281 278 279
242 242 244 241 239 232 236 241 241 243 243 244 243 239 238 244 253 257 257 255 255 254 259 260 258 259 251 252 254 255 258 258 259 258 256 259 265 268 265 261 268 274 273 274
245 241 241 244 241 241 244 248 247 247 247 249 250 246 246 248 254 257 258 255 256 253 255 257 256 257 256 256 256 258 261 259 258 260 256 256 261 262 259 258 260 266 269 273
243 240 238 242 244 246 250 249 250 251 249 249 252 250 246 251 254 257 258 258 259 255 255 254 252 252 254 255 254 254 258 255 256 258 255 255 256 255 257 257 259 264 268 269
245 243 241 242 244 246 249 246 246 248 249 248 249 251 246 247 253 259 262 261 260 254 252 249 248 252 253 253 251 253 255 255 256 256 254 254 254 253 251 253 257 262 268 266
247 244 245 243 244 247 247 246 244 249 251 249 250 248 246 249 255 262 268 266 256 249 248 248 250 252 254 253 252 256 257 258 257 255 254 252 252 252 249 251 254 258 264 264
245 243 246 244 245 247 251 249 249 251 250 252 252 251 254 255 257 262 264 260 251 246 251 254 254 256 257 258 257 257 258 258 257 257 255 253 250 250 252 254 255 257 262 261
249 247 247 248 249 249 250 250 251 254 255 254 252 253 258 257 258 259 259 257 253 248 249 255 259 260 260 261 261 262 264 259 256 254 253 251 248 248 252 254 256 259 261 261
253 251 250 252 253 252 250 247 249 253 255 255 256 257 257 259 259 259 258 252 248 245 243 252 260 262 262 263 264 265 265 260 255 253 251 251 250 252 253 251 255 257 256 261
252 253 252 253 253 252 250 248 246 247 252 255 258 259 260 259 259 261 256 252 249 245 246 252 258 261 261 263 266 266 263 260 258 255 254 254 254 253 252 253 254 257 258 258
256 257 255 252 250 250 250 250 248 248 250 253 256 260 260 259 261 262 259 255 252 250 252 255 258 258 259 263 266 265 261 260 260 258 256 256 256 255 254 254 254 257 259 259
256 258 258 254 253 250 249 250 249 247 248 252 255 257 257 259 261 260 258 257 254 257 260 259 259 259 261 264 264 263 261 260 259 258 258 257 258 257 254 254 254 254 256 258
257 258 259 257 255 253 251 249 249 248 248 250 252 257 259 260 259 260 259 260 259 261 263 261 260 260 261 263 263 263 263 261 261 261 260 259 259 258 257 255 257 257 255 256
257 259 259 260 261 259 255 251 250 248 248 250 252 255 256 258 257 258 261 263 261 263 265 264 262 261 261 262 263 264 263 262 261 262 261 260 258 257 257 256 256 256 256 258
254 256 257 257 257 257 256 254 252 250 250 252 252 253 256 256 257 257 259 260 260 261 261 261 263 264 262 262 263 264 264 262 262 262 260 260 260 258 258 255 254 256 258 260
253 255 255 255 256 258 258 256 254 253 251 253 252 252 255 256 254 254 255 258 258 260 262 265 265 266 265 265 266 265 264 262 262 262 260 260 260 258 257 254 254 257 259 261
254 255 256 255 255 258 259 260 258 253 251 252 253 252 252 253 254 255 257 258 259 260 262 264 265 267 269 269 267 265 264 263 263 261 259 260 259 256 254 253 255 256 258 260
255 256 258 258 257 257 258 256 255 254 252 252 253 253 253 253 252 254 254 256 257 260 261 263 265 266 268 268 267 265 264 264 263 261 260 262 260 258 257 256 255 256 258 260
255 257 259 258 258 258 254 253 254 254 252 253 253 254 254 253 251 252 253 255 258 261 261 261 263 263 265 266 266 265 264 264 263 261 263 265 263 261 259 257 257 258 258 259
256 257 258 259 259 260 256 254 254 254 253 253 252 252 253 253 253 252 254 255 256 258 259 260 261 262 264 264 265 266 265 262 261 260 261 264 266 263 261 259 258 258 258 258
256 258 259 260 260 259 257 254 251 252 255 254 253 251 251 251 254 254 254 255 256 258 260 262 262 262 263 264 265 265 263 262 261 261 261 263 265 264 261 260 258 257 258 259
256 258 260 261 260 258 257 256 252 252 253 253 254 253 253 254 255 255 255 257 259 260 261 262 263 263 262 263 264 265 264 262 261 260 260 261 263 263 261 260 260 259 258 259
256 259 260 260 260 259 259 256 252 251 253 253 255 254 254 256 257 257 257 259 260 261 261 261 261 263 262 262 262 262 262 261 260 260 260 260 261 262 260 259 259 260 260 260
257 259 260 259 259 259 259 257 253 252 252 253 252 251 252 255 257 259 261 259 259 259 260 261 262 262 262 262 261 261 262 261 259 259 259 258 257 258 257 256 257 258 258 261
257 258 260 261 260 259 258 258 255 252 253 253 252 251 251 253 256 257 258 258 259 259 260 261 261 261 261 261 262 262 262 261 260 258 258 257 255 256 256 256 257 259 260 261
256 258 259 260 259 257 257 256 254 253 252 254 252 250 252 254 255 255 255 257 257 257 258 259 259 259 260 261 261 262 263 261 260 260 259 257 256 256 256 256 256 258 260 262
Height
5856 5858 5857 5858 5858 5859 5859 5860 5861 5862 5862 5862 5863 5863 5864 5864 5865 5866 5866 5866 5867 5867 5868 5868 5868 5868 5868 5869 5869 5869 5869 5869 5869 5870 5870 5870 5870 5869 5869 5869 5869 5868 5868 5868
5855 5855 5856 5856 5856 5856 5857 5858 5859 5859 5859 5859 5860 5861 5862 5862 5863 5863 5863 5864 5864 5864 5865 5865 5865 5866 5866 5866 5866 5867 5867 5867 5867 5867 5868 5868 5868 5868 5868 5867 5867 5867 5867 5866
5852 5854 5853 5854 5854 5854 5855 5856 5856 5857 5857 5857 5858 5859 5860 5860 5860 5860 5861 5861 5862 5862 5862 5863 5863 5863 5864 5864 5864 5864 5864 5865 5865 5865 5865 5865 5866 5866 5866 5865 5865 5865 5865 5865
5849 5850 5851 5851 5852 5852 5853 5853 5854 5854 5855 5855 5856 5856 5857 5857 5857 5858 5858 5858 5859 5859 5860 5860 5860 5861 5861 5862 5862 5862 5862 5862 5863 5863 5863 5863 5863 5864 5864 5863 5863 5863 5863 5863
5847 5847 5848 5848 5849 5850 5850 5850 5851 5851 5851 5852 5853 5853 5855 5855 5855 5855 5856 5856 5856 5857 5857 5857 5858 5858 5859 5859 5860 5860 5860 5860 5860 5860 5860 5861 5861 5861 5862 5861 5861 5861 5861 5861
5844 5844 5845 5846 5846 5847 5847 5848 5848 5848 5848 5849 5850 5850 5852 5852 5853 5853 5853 5853 5853 5854 5854 5854 5855 5855 5856 5856 5857 5857 5857 5857 5857 5858 5858 5858 5858 5858 5859 5859 5859 5859 5859 5859
5841 5842 5842 5842 5843 5844 5844 5845 5845 5845 5845 5846 5847 5847 5849 5849 5850 5850 5850 5850 5850 5851 5851 5852 5852 5852 5853 5853 5854 5854 5854 5854 5854 5854 5854 5855 5855 5856 5856 5856 5857 5857 5857 5857
5838 5839 5839 5839 5840 5840 5841 5842 5843 5843 5843 5843 5843 5843 5846 5846 5846 5846 5847 5847 5847 5848 5848 5849 5849 5850 5850 5850 5850 5850 5851 5851 5851 5851 5851 5852 5852 5853 5853 5854 5854 5854 5854 5854
5834 5836 5836 5836 5836 5837 5837 5837 5839 5839 5838 5839 5839 5840 5842 5842 5843 5843 5844 5844 5844 5845 5846 5846 5846 5847 5847 5847 5847 5847 5847 5848 5848 5848 5848 5849 5849 5850 5850 5850 5851 5851 5851 5851
5830 5831 5832 5832 5832 5832 5833 5834 5834 5834 5834 5835 5836 5836 5838 5838 5839 5840 5840 5841 5841 5842 5843 5843 5843 5843 5844 5844 5844 5844 5844 5845 5845 5845 5845 5845 5846 5846 5847 5847 5847 5848 5848 5848
5825 5826 5828 5828 5827 5828 5829 5829 5829 5830 5830 5831 5832 5835 5834 5835 5836 5836 5837 5837 5838 5839 5839 5839 5840 5840 5840 5840 5841 5841 5841 5841 5841 5841 5841 5842 5842 5843 5843 5843 5844 5844 5845 5845
5820 5821 5822 5823 5823 5823 5824 5824 5825 5826 5826 5826 5827 5832 5830 5831 5832 5832 5833 5834 5834 5835 5836 5836 5836 5836 5837 5837 5837 5837 5837 5838 5838 5838 5838 5838 5838 5839 5839 5839 5840 5841 5841 5841
5815 5816 5816 5817 5820 5819 5818 5819 5819 5820 5821 5822 5823 5828 5826 5827 5828 5829 5829 5830 5831 5831 5832 5832 5832 5833 5833 5833 5834 5834 5834 5834 5834 5834 5834 5834 5835 5835 5835 5836 5836 5837 5837 5838
5810 5810 5812 5813 5812 5813 5813 5813 5814 5815 5816 5817 5819 5821 5822 5822 5823 5824 5825 5826 5826 5827 5828 5828 5829 5829 5829 5829 5829 5830 5830 5830 5830 5830 5830 5831 5831 5831 5831 5832 5832 5833 5833 5834
5804 5804 5805 5806 5806 5807 5807 5808 5808 5809 5810 5812 5814 5815 5817 5818 5819 5820 5820 5821 5822 5823 5823 5824 5824 5825 5825 5825 5825 5825 5825 5825 5826 5826 5826 5826 5827 5826 5827 5827 5828 5829 5829 5829
5797 5798 5799 5800 5800 5800 5801 5802 5803 5804 5805 5807 5808 5810 5813 5813 5814 5815 5816 5817 5818 5818 5819 5820 5820 5820 5820 5820 5821 5821 5821 5821 5821 5821 5821 5822 5822 5822 5822 5823 5824 5824 5824 5825
5791 5792 5793 5794 5794 5794 5795 5797 5797 5798 5800 5801 5802 5806 5806 5807 5808 5809 5810 5811 5812 5813 5814 5815 5815 5816 5816 5816 5816 5816 5816 5816 5817 5817 5817 5817 5817 5817 5818 5818 5819 5819 5819 5820
5785 5785 5786 5787 5788 5788 5792 5791 5792 5792 5794 5795 5797 5799 5800 5801 5803 5804 5805 5805 5806 5807 5809 5809 5810 5810 5811 5811 5811 5811 5811 5811 5811 5811 5812 5812 5812 5812 5812 5813 5813 5814 5814 5815
5778 5778 5779 5780 5780 5781 5785 5785 5785 5786 5787 5789 5791 5792 5793 5795 5796 5798 5799 5800 5801 5802 5803 5803 5804 5805 5805 5806 5806 5806 5806 5806 5806 5806 5806 5806 5806 5807 5807 5807 5808 5809 5809 5810
5771 5772 5773 5773 5773 5774 5778 5779 5779 5780 5781 5783 5784 5786 5787 5789 5790 5793 5793 5794 5795 5796 5797 5797 5798 5799 5799 5800 5800 5800 5800 5801 5801 5801 5801 5801 5801 5801 5801 5801 5802 5802 5803 5804
5765 5765 5765 5766 5766 5768 5770 5771 5773 5774 5776 5777 5777 5779 5781 5782 5784 5786 5786 5788 5789 5790 5790 5791 5792 5792 5793 5793 5794 5794 5794 5794 5795 5795 5795 5795 5795 5795 5795 5796 5796 5796 5797 5797
5758 5758 5759 5759 5759 5763 5763 5764 5765 5767 5768 5769 5771 5772 5774 5775 5777 5778 5780 5781 5782 5783 5784 5784 5785 5785 5786 5786 5787 5787 5787 5788 5788 5788 5789 5789 5789 5789 5790 5790 5790 5790 5791 5791
5750 5752 5752 5753 5755 5755 5755 5756 5757 5759 5760 5762 5764 5765 5767 5768 5770 5771 5773 5774 5775 5776 5776 5777 5778 5778 5779 5779 5779 5780 5780 5780 5781 5782 5782 5783 5783 5783 5784 5784 5784 5785 5785 5785
5743 5743 5744 5744 5746 5747 5747 5747 5749 5750 5752 5754 5756 5758 5759 5761 5762 5764 5765 5766 5767 5768 5769 5770 5771 5771 5772 5772 5772 5772 5773 5773 5774 5775 5775 5776 5776 5777 5777 5778 5778 5778 5779 5779
5735 5735 5735 5736 5738 5738 5739 5739 5741 5743 5744 5746 5748 5750 5751 5753 5755 5756 5758 5759 5760 5761 5762 5762 5763 5764 5764 5765 5765 5765 5765 5766 5766 5767 5768 5769 5769 5770 5771 5771 5772 5772 5773 5773
5727 5727 5727 5728 5729 5730 5731 5732 5733 5735 5736 5738 5740 5742 5743 5744 5747 5748 5750 5751 5752 5753 5754 5755 5756 5756 5757 5757 5758 5758 5758 5758 5759 5760 5761 5761 5762 5763 5764 5764 5765 5765 5766 5766